Regional Weather Roundup
Issued by NWS Charleston, WV

Home | Current Version | Previous Version | Graphics & Text | Print | Product List | Glossary Off
Versions: 1 2 3 4 5 6 7 8 9 10 11 12 13 14 15 16 17 18 19 20 21 22 23 24 25 26 27 28 29 30 31 32 33 34 35 36 37 38 39 40 41 42 43 44 45 46 47 48 49 50

000
ASUS41 KRLX 130810
RWRRLX
West Virginia Regional Weather Roundup
National Weather Service Charleston WV
300 AM EST SAT FEB 13 2016

Note: "fair" indicates few or no clouds below 12,000 feet with no
significant weather and/or obstructions to visibility.

WVZ003-130900-
Northern Panhandle of West Virginia

CITY           SKY/WX    TMP DP  RH WIND       PRES   REMARKS
WHEELING       LGT SNOW  13   6  74 W13G21    30.14R WCI  -2
$$

WVZ009-130900-
Northwest West Virginia

CITY           SKY/WX    TMP DP  RH WIND       PRES   REMARKS
PARKERSBURG      N/A     14   4  64 W8        30.26R WCI   3
$$

WVZ006-130900-
Western West Virginia

CITY           SKY/WX    TMP DP  RH WIND       PRES   REMARKS
HUNTINGTON     MOCLDY    18   7  62 NW8G17    30.29R WCI   8
$$

WVZ015-130900-
West Central West Virginia

CITY           SKY/WX    TMP DP  RH WIND       PRES   REMARKS
CHARLESTON     MOCLDY    18   2  49 NW13G24   30.25R WCI   5
$$

WVZ022-031-130900-
North Central West Virginia

CITY           SKY/WX    TMP DP  RH WIND       PRES   REMARKS
CLARKSBURG     MOCLDY    14   4  64 W13G20    30.15R WCI   0
MORGANTOWN     MOCLDY    14   1  56 W12G20    30.11R WCI   0
$$

WVZ025-035-042-045-130900-
Southern West Virginia

CITY           SKY/WX    TMP DP  RH WIND       PRES   REMARKS
BECKLEY        CLOUDY    13   8  81 N14       30.08R HAZE    WCI  -2
LOGAN          LGT SNOW  18  12  79 N12G21    30.19R WCI   5
BLUEFIELD      LGT SNOW  14  10  84 NW20G29   30.05R FOG     WCI  -3
LEWISBURG      FLURRIES  17   8  66 NW9G16    30.05R WCI   6
$$

WVZ047-130900-
Northern Mountains of West Virginia

CITY           SKY/WX    TMP DP  RH WIND       PRES   REMARKS
ELKINS           N/A     12   0  58 W14G22    30.07R WCI  -3
$$

WVZ052-130900-
Eastern Panhandle of West Virginia

CITY           SKY/WX    TMP DP  RH WIND       PRES   REMARKS
MARTINSBURG    CLOUDY    21   7  54 W15G28    30.02R WCI   8
PETERSBURG       N/A     19   2  49 NW9G25    30.10R WCI   7
$$



USA.gov is the U.S. government's official web portal to all federal, state and local government web resources and services.